This is the latest recevied weather packets stored in our database for station/object BM1CKC-10. If no packets are shown the sender has not sent any weather packets the latest 10 day(s).
| Time | Temp. | Humidity | Pressure | Rain* | Wind** | Luminosity | Snow |
|---|---|---|---|---|---|---|---|
| 1777408198 | 25.56° C | 56% | 1003.6 hPa | - | - | - | - |
| 1777406998 | 25.56° C | 58% | 1003.4 hPa | - | - | - | - |
| 1777405798 | 25.56° C | 57% | 1003.5 hPa | - | - | - | - |
| 1777403398 | 25° C | 56% | 1003.6 hPa | - | - | - | - |
| 1777396198 | 25° C | 59% | 1005.1 hPa | - | - | - | - |
| 1777393799 | 24.44° C | 56% | 1005.4 hPa | - | - | - | - |
| 1777391398 | 25° C | 54% | 1006 hPa | - | - | - | - |
| 1777385398 | 28.89° C | 57% | 1006.6 hPa | - | - | - | - |
| 1777381798 | 28.33° C | 56% | 1006.7 hPa | - | - | - | - |
| 1777380598 | 28.89° C | 57% | 1006.7 hPa | - | - | - | - |
| 1777378197 | 28.89° C | 57% | 1006.1 hPa | - | - | - | - |
| 1777374597 | 28.89° C | 58% | 1005.7 hPa | - | - | - | - |
| 1777373398 | 28.89° C | 58% | 1005.5 hPa | - | - | - | - |
| 1777372197 | 28.89° C | 59% | 1005.4 hPa | - | - | - | - |
| 1777370998 | 28.89° C | 59% | 1005.1 hPa | - | - | - | - |
| 1777369798 | 28.89° C | 59% | 1005.1 hPa | - | - | - | - |
| 1777368597 | 28.89° C | 58% | 1004.8 hPa | - | - | - | - |
| 1777367398 | 28.89° C | 60% | 1004.8 hPa | - | - | - | - |
| 1777364997 | 28.89° C | 59% | 1004.5 hPa | - | - | - | - |
| 1777363797 | 28.89° C | 59% | 1004.5 hPa | - | - | - | - |
| 1777362597 | 28.89° C | 59% | 1004.5 hPa | - | - | - | - |
| 1777361398 | 28.89° C | 58% | 1004.7 hPa | - | - | - | - |
| 1777360198 | 28.89° C | 58% | 1004.7 hPa | - | - | - | - |
| 1777358998 | 28.33° C | 60% | 1004.9 hPa | - | - | - | - |
| 1777357797 | 28.33° C | 60% | 1005.1 hPa | - | - | - | - |
* Rain since midnight (hover to see other rain measurements)
** Current wind speed in m/s (hover to see current wind gust speed)